Location: Brunembert
(50.7122°N, 1.8935°E)
Time: 14:58:40
(UTC+00:00)

Cosmos 1500 Rocket - Pass Details

Date: 29 July 2021
Orbit: 602 x 632 km, 82.5° (Epoch: 23 September)

Event Time Altitude Azimuth Distance (km) Brightness Sun altitude
Exits shadow 00:20:14 - 261° (W) 2,300 6.3 -20.4°
Reaches altitude 10° 00:21:45 10° 277° (W) 1,996 6.2 -20.4°
Maximum altitude 00:23:33 12° 301° (WNW) 1,857 6.3 -20.3°
Drops below altitude 10° 00:25:22 10° 325° (NW) 2,009 6.8 -20.3°
Sets 00:29:01 0° 356° (N) 2,930 8.5 -20.2°
